Theta_e
313 314 314 315 318 318 317 316 315 315 316 317 313 308 308 308 307 308 308 308 309 309 309 309 310 310 310 312 312 313 313 315 316 316 318 321 320 318 314 315 313 310 309 308 310 313 314 314 314 314 313 313 313 314 314 313 314 314 317 317 315 317 315 315 318 314 322 338 343 342 341 341 341 339 336 336 336 336 336 337 336 336 337 337 337 336 336 336
312 315 315 316 318 317 316 315 315 316 315 316 315 309 307 309 308 308 308 308 309 309 309 309 309 310 312 313 313 312 314 318 321 322 321 319 318 315 312 312 311 310 309 311 313 313 314 315 314 313 313 313 313 313 313 313 313 314 317 317 315 318 316 315 316 313 325 336 338 341 341 341 342 340 337 338 339 337 338 338 337 337 338 337 336 336 336 336
309 313 316 317 317 317 315 315 315 316 316 316 316 311 307 309 308 308 308 308 309 309 309 309 310 311 312 312 314 313 316 321 325 324 318 313 313 311 311 312 311 312 311 312 313 312 312 314 313 313 314 313 313 312 312 314 313 314 314 314 316 318 315 315 317 320 330 337 339 340 340 341 340 338 337 338 339 338 339 339 339 340 340 338 337 336 336 336
305 308 313 316 318 317 315 316 316 316 316 316 316 313 307 308 309 308 309 308 308 309 309 310 310 311 311 312 314 314 317 321 320 316 311 310 311 311 312 312 311 312 312 312 312 311 311 312 312 313 313 313 313 311 312 313 312 313 313 314 315 315 315 314 320 329 334 336 339 340 341 341 339 337 337 338 339 340 339 338 338 339 339 338 337 336 337 336
303 304 308 313 317 318 317 317 317 316 316 316 316 313 308 308 309 308 309 309 309 309 309 310 310 311 311 312 314 316 318 318 315 312 311 311 312 312 312 311 312 311 311 312 311 311 312 313 313 314 314 313 313 312 312 312 312 313 313 314 314 314 314 313 321 332 335 336 339 340 341 340 338 338 337 337 341 341 338 335 335 336 336 337 336 336 336 336
303 303 304 308 313 317 318 318 318 316 316 317 315 312 309 308 309 308 309 309 309 309 309 310 310 311 311 312 317 320 319 318 315 312 312 312 312 312 312 311 312 311 311 312 311 312 314 315 315 314 315 315 314 314 314 312 311 312 312 314 313 313 313 316 327 334 335 338 340 340 339 338 338 337 335 336 338 335 332 332 333 334 336 336 336 336 336 336
303 303 303 304 308 313 317 318 319 316 316 317 314 311 309 308 309 309 309 309 309 309 309 310 310 311 311 313 320 324 326 324 317 312 312 311 312 311 312 312 312 312 312 312 311 313 315 316 317 316 315 316 316 315 315 314 311 311 312 313 314 314 312 319 331 335 337 339 340 339 338 337 339 338 335 335 334 330 330 331 333 333 334 335 335 335 336 337
303 304 303 303 305 310 315 317 318 316 316 317 312 309 309 308 308 309 309 309 309 309 310 310 310 310 311 316 320 324 330 328 317 312 311 311 312 312 312 313 314 314 313 313 313 313 315 317 317 316 314 315 315 315 315 314 313 312 311 313 315 314 315 325 334 336 338 338 338 338 338 338 337 336 335 336 332 329 330 331 332 333 333 334 334 335 336 337
303 304 303 304 304 308 313 316 317 316 316 316 312 308 308 308 308 309 309 309 309 310 310 310 310 309 312 318 322 326 327 322 315 313 312 312 313 314 314 315 315 315 315 315 314 313 316 317 315 314 314 314 313 313 314 314 313 312 313 314 315 314 319 330 335 335 337 337 338 339 338 337 334 335 336 334 330 328 329 331 332 333 333 333 333 334 335 337
303 304 303 304 305 308 312 315 316 316 315 316 311 307 308 308 308 309 309 309 309 310 310 310 310 310 313 318 324 328 321 314 316 315 313 313 314 315 315 315 315 315 315 315 314 314 316 316 313 313 314 313 313 313 313 313 313 312 313 314 315 314 317 328 334 335 336 336 337 339 338 337 333 336 338 333 329 329 330 332 332 332 333 333 332 334 334 335
303 304 303 303 306 310 313 315 316 315 315 315 312 308 308 308 309 309 309 310 309 310 309 309 310 311 314 318 325 329 320 313 317 316 315 315 315 315 315 315 315 314 315 314 313 313 315 313 312 313 314 313 313 313 314 313 312 313 314 314 316 315 316 327 334 333 334 334 334 336 337 337 335 336 337 333 330 331 332 333 332 332 333 332 332 332 332 332
304 304 304 303 306 312 314 315 315 315 315 315 312 309 308 308 308 309 310 310 309 310 309 309 311 312 315 321 326 326 318 315 316 315 316 315 315 316 315 315 314 314 314 313 313 314 314 313 313 314 314 313 313 314 314 313 313 313 315 315 316 316 316 322 328 330 333 333 331 333 337 339 339 337 334 333 332 332 333 333 332 332 332 332 332 332 331 331
304 304 304 303 306 312 315 315 315 315 315 315 312 309 309 309 309 309 310 310 309 309 309 311 313 313 317 324 325 320 315 316 316 315 316 315 316 316 315 315 315 315 314 313 314 314 314 313 313 314 313 313 314 313 313 313 314 314 314 316 316 317 316 314 320 329 331 328 327 333 342 340 337 336 334 333 333 332 332 332 332 332 331 330 331 331 330 329
304 304 304 304 307 313 314 314 315 315 315 314 312 310 310 310 310 310 310 310 310 311 312 313 314 315 320 325 321 317 316 316 315 315 316 315 315 315 316 316 315 314 314 314 314 314 314 313 313 314 314 313 313 314 315 315 315 315 314 317 316 314 315 314 316 322 325 326 327 332 340 338 332 333 335 333 332 332 333 332 332 332 330 329 329 329 329 328
304 304 304 304 308 313 314 314 314 315 315 314 311 310 310 311 311 311 310 311 312 314 314 314 316 319 324 326 320 317 317 315 316 315 315 316 315 314 316 315 315 314 314 314 314 314 314 313 313 314 314 314 314 316 318 319 318 317 315 315 316 314 315 316 314 317 322 325 326 333 338 337 332 332 334 333 332 333 333 332 332 331 330 328 327 328 329 328
304 304 304 304 308 313 314 314 315 315 315 313 311 311 311 311 312 312 313 314 315 316 315 316 318 320 325 326 320 316 316 316 316 315 315 316 314 314 315 315 315 314 314 314 314 314 314 314 315 314 315 313 315 320 323 325 324 323 320 315 315 316 315 316 315 314 317 321 325 333 338 335 333 334 333 333 333 332 333 332 331 330 329 327 327 327 328 327
304 304 305 304 309 313 314 314 315 316 315 312 311 311 312 313 314 314 315 317 317 318 317 317 318 320 324 325 320 316 316 316 315 315 316 315 314 315 314 315 314 313 314 314 314 314 313 313 313 314 316 315 317 324 328 323 321 325 322 315 315 316 314 314 316 314 316 325 330 332 335 334 335 335 333 333 333 332 333 332 330 329 328 327 326 326 326 327
304 304 305 304 308 313 314 314 315 317 315 312 312 315 317 318 319 318 319 320 318 320 321 319 320 321 321 321 322 318 316 316 315 315 315 315 315 315 314 315 314 313 314 314 314 314 313 315 317 319 322 321 319 327 328 318 317 322 319 314 316 316 315 315 316 314 317 326 331 331 333 334 333 334 333 332 332 332 332 331 330 329 327 327 326 325 325 325
304 305 305 305 309 313 315 315 316 317 315 313 315 320 322 323 325 324 321 320 319 321 324 323 325 324 318 318 320 317 315 316 316 316 315 315 315 314 315 315 314 314 313 316 317 314 316 320 320 321 323 322 319 324 327 320 319 321 318 317 319 315 316 317 316 316 315 320 328 332 333 333 333 334 333 332 332 332 332 332 330 328 328 327 326 325 325 325
304 305 305 305 309 314 316 316 317 318 316 316 318 325 327 325 330 330 323 322 320 320 321 321 324 322 317 317 317 315 317 316 316 316 316 316 314 314 315 314 315 316 315 317 315 313 320 325 320 319 322 321 318 319 323 321 318 317 317 319 318 315 316 317 317 317 315 316 322 330 332 332 332 332 332 331 331 332 332 332 330 328 327 326 325 325 324 325
304 305 305 306 310 315 317 317 318 318 318 318 321 330 331 324 327 329 324 324 322 319 320 320 320 319 317 317 315 316 317 316 316 316 315 316 314 314 315 315 316 316 316 317 318 322 326 325 321 321 321 318 316 319 320 318 317 317 318 317 315 316 316 316 317 317 317 315 317 327 334 332 331 330 330 331 330 331 332 331 330 328 326 326 325 325 325 325
304 305 305 305 310 315 317 318 320 319 321 322 323 329 328 321 323 325 323 325 323 320 321 322 319 317 316 317 316 316 316 317 318 317 316 316 315 315 316 316 315 316 317 316 323 333 332 324 322 322 318 315 316 318 318 317 318 319 318 316 316 317 317 318 320 316 316 317 315 322 329 330 330 329 328 330 330 330 330 330 329 327 326 325 325 325 325 325
304 305 305 306 311 316 317 320 321 321 324 324 323 324 322 321 325 323 322 326 325 322 323 324 320 317 318 317 316 317 316 317 318 317 316 315 315 316 315 315 315 316 315 316 325 333 327 323 325 321 316 316 315 316 317 318 319 318 318 318 318 318 316 318 321 317 316 317 315 318 322 323 327 329 328 328 328 328 328 328 328 327 326 325 324 324 324 325
304 305 305 305 310 316 318 320 322 323 324 323 322 322 321 324 325 323 326 329 328 326 324 323 320 318 319 317 316 317 317 317 317 317 316 315 315 315 314 316 316 316 316 319 326 329 324 322 322 317 315 317 316 316 319 320 319 316 318 319 319 319 316 316 320 317 315 315 315 320 322 319 323 328 328 328 326 327 327 328 327 326 326 326 325 324 324 324
304 304 305 305 308 316 319 321 323 323 323 322 322 323 323 325 324 323 327 330 331 331 324 319 319 318 318 317 317 317 317 317 316 316 315 314 315 315 315 316 316 316 316 317 321 324 322 318 316 315 315 316 317 317 319 322 321 316 318 320 318 318 316 316 317 315 313 313 317 321 320 323 331 328 325 326 327 327 327 327 326 326 327 326 325 324 324 324
304 304 305 305 306 315 322 323 323 323 324 323 323 324 322 324 324 322 328 334 336 333 323 318 319 319 317 318 317 317 319 320 318 316 315 315 313 314 317 318 317 316 316 320 324 324 321 317 316 314 313 317 323 320 316 323 322 317 322 322 316 316 316 315 314 314 315 315 319 319 318 327 334 328 324 325 325 326 327 326 325 325 326 325 324 324 324 323
305 304 305 305 305 314 325 326 323 324 326 324 322 321 320 322 323 322 332 339 336 327 321 321 320 319 318 318 317 320 322 321 318 317 316 316 314 314 317 318 319 316 317 324 325 322 320 319 318 317 317 321 326 320 316 323 322 320 326 321 317 318 315 315 314 315 319 318 322 327 326 328 329 330 331 326 321 323 326 326 325 325 325 325 324 323 322 322
306 304 305 306 304 309 322 323 320 322 325 323 319 318 319 320 323 329 336 335 329 322 320 320 318 318 318 318 317 321 322 318 320 321 317 315 314 315 316 317 317 316 318 325 324 319 320 320 317 318 320 320 322 321 317 320 322 324 326 318 317 317 314 316 313 314 321 317 319 328 325 322 330 340 334 324 322 323 326 326 324 325 325 323 324 322 321 321
306 305 305 306 304 309 317 317 317 322 324 322 320 318 318 321 328 338 341 333 325 323 322 319 319 319 319 319 317 319 319 316 321 323 318 316 314 314 317 317 316 315 317 324 325 320 318 319 319 318 320 320 320 321 319 318 319 321 319 317 321 321 321 322 317 320 327 320 318 325 323 319 331 341 328 319 324 324 324 326 324 325 324 323 323 321 320 319
306 305 305 305 306 309 311 312 318 324 324 322 321 318 320 330 338 341 338 332 327 325 325 322 320 320 320 321 321 320 318 315 318 319 315 317 316 314 317 315 317 323 324 324 324 321 318 318 319 318 318 319 317 319 319 316 316 317 316 319 325 330 334 336 335 335 330 324 325 329 327 322 326 337 329 322 329 326 323 325 325 325 324 322 322 320 319 319
306 305 305 305 305 307 309 314 320 323 323 321 321 323 330 338 343 341 334 328 328 330 329 325 323 323 321 321 322 322 318 315 315 315 316 320 317 316 319 317 324 334 336 330 323 321 320 318 317 317 317 319 318 318 320 320 318 316 319 322 324 329 335 340 342 336 325 326 333 332 328 322 323 336 336 330 332 326 321 323 325 325 323 322 321 320 319 319
306 305 306 308 308 306 308 314 318 321 322 321 325 337 343 339 338 338 333 329 332 333 328 325 324 324 322 322 322 320 318 317 316 316 318 321 320 319 323 323 326 331 330 327 323 323 324 320 317 316 316 318 319 319 322 327 326 319 321 327 328 329 333 336 335 329 324 328 331 330 327 323 325 332 333 331 331 324 320 322 323 323 323 321 320 319 319 319
306 305 308 314 315 311 309 311 316 322 322 323 334 347 349 341 335 334 333 331 332 330 326 324 324 325 324 323 323 321 320 319 318 316 315 321 324 321 322 323 324 326 325 323 323 328 331 327 318 316 319 319 319 321 321 324 324 318 319 327 331 332 331 332 331 327 328 333 333 329 326 325 326 329 329 328 328 326 321 321 322 323 322 320 320 319 318 319
307 305 307 313 317 318 314 310 315 322 322 328 341 346 343 338 335 333 331 330 329 328 327 324 324 327 326 325 325 323 322 320 317 316 316 323 328 323 319 318 317 325 335 330 323 325 326 327 323 319 320 318 316 322 322 321 322 320 321 323 327 332 332 330 331 330 331 334 332 325 324 328 328 327 331 326 322 323 321 319 322 323 322 320 319 319 319 319
307 307 307 308 313 321 319 313 319 323 322 334 347 344 339 335 332 332 331 329 329 328 328 327 326 328 329 334 333 323 320 320 316 318 319 320 325 325 321 319 314 321 336 331 321 321 322 325 329 321 317 317 315 318 320 319 321 321 321 321 321 328 336 332 329 335 333 328 329 325 325 333 330 326 332 326 318 321 322 321 323 323 323 321 320 320 319 319
306 308 310 307 311 323 322 319 325 324 325 340 346 343 343 337 330 329 329 327 324 326 331 333 331 330 329 335 335 323 319 322 319 319 321 320 323 326 322 318 316 321 331 328 319 321 324 326 329 320 315 319 317 318 317 316 323 324 319 322 321 321 331 331 326 333 332 325 329 327 325 333 331 325 333 330 321 322 324 323 323 323 323 321 320 320 319 319
308 313 320 317 316 324 324 323 325 323 333 346 345 342 343 335 328 328 327 325 322 328 335 334 332 330 328 331 332 326 321 322 321 318 320 322 322 324 320 317 316 317 324 328 321 320 323 326 329 321 318 322 319 319 321 317 322 324 319 324 325 320 330 335 328 330 329 326 332 329 324 329 330 327 332 329 323 323 326 325 323 323 323 321 321 320 318 319
315 322 328 325 319 322 325 326 322 325 342 351 344 342 339 330 327 327 326 323 323 330 334 332 332 330 328 329 330 327 323 321 322 319 319 323 321 319 318 318 317 314 318 326 323 321 324 326 329 325 317 320 321 319 323 323 322 322 321 325 323 320 330 333 326 330 329 325 330 332 325 321 327 335 332 323 324 326 326 327 324 323 323 321 321 319 318 319
319 329 334 327 322 324 324 321 323 334 347 347 340 340 337 329 325 325 326 324 326 333 331 327 331 332 330 328 326 329 327 322 324 322 317 320 322 318 316 318 318 314 317 323 321 323 327 324 328 331 318 317 324 320 322 328 324 321 322 327 328 328 331 327 322 328 330 325 327 333 332 326 330 340 335 324 327 328 327 328 325 322 323 321 320 319 318 319
321 331 333 325 324 325 321 320 330 340 343 340 338 338 334 328 323 324 328 326 327 332 329 324 327 330 331 329 327 329 328 323 326 325 319 320 322 317 316 319 317 316 322 329 325 328 330 322 325 333 323 318 324 322 322 327 325 323 323 325 332 332 327 325 324 326 329 330 330 330 334 338 337 333 329 327 327 325 326 329 326 323 323 321 320 319 318 319
321 329 330 327 325 324 325 329 336 340 337 335 336 332 329 328 325 326 329 327 326 327 327 328 329 329 329 328 327 325 324 326 326 323 321 321 322 320 318 319 319 319 328 334 329 328 330 324 323 329 327 324 325 322 319 320 324 330 329 329 335 335 329 327 329 331 332 333 333 328 328 341 342 327 323 329 328 325 325 326 326 325 323 322 321 319 319 319
324 330 328 325 324 324 329 333 334 333 330 333 336 331 329 330 326 325 326 326 326 325 325 328 328 328 327 325 325 322 322 326 326 323 323 320 320 321 320 321 323 325 329 329 325 327 332 329 325 326 326 322 320 317 314 318 327 332 333 335 338 338 336 333 332 337 333 328 332 330 326 340 348 334 330 337 335 328 324 324 326 325 323 323 322 320 319 318
324 327 326 320 321 325 330 333 335 334 330 332 336 330 326 328 327 326 327 326 326 326 326 325 325 325 323 321 323 321 322 326 325 324 325 322 319 318 321 328 330 329 331 329 325 327 332 330 325 329 333 327 324 324 322 326 331 327 330 334 330 329 335 336 337 338 330 326 332 329 327 340 350 342 335 336 335 331 326 325 326 324 323 322 321 320 320 319
317 320 326 324 323 325 327 330 332 335 335 333 332 329 326 329 331 329 328 326 325 326 327 327 325 323 321 321 322 320 322 327 326 325 325 324 322 319 325 336 333 327 329 329 327 326 325 328 330 330 331 332 335 336 332 329 327 323 329 331 326 327 330 328 333 332 326 330 334 329 331 342 345 339 332 326 326 327 325 325 325 325 324 323 322 322 321 320
319 323 328 327 323 323 328 332 328 329 331 328 327 332 331 330 331 330 328 325 324 326 327 326 323 321 322 323 323 322 324 325 326 327 325 323 322 319 324 335 334 328 325 327 335 334 325 329 336 333 329 332 335 333 328 325 323 324 329 328 323 325 325 325 330 330 328 334 333 329 337 342 337 332 328 324 323 322 324 325 325 325 324 323 325 324 322 321
326 331 333 330 328 327 330 332 326 323 327 326 327 331 331 330 331 329 326 324 324 326 327 325 322 323 324 324 325 327 326 324 324 325 323 322 321 319 322 332 335 330 326 329 340 341 328 328 337 338 336 335 332 330 327 323 323 324 326 326 322 322 327 329 330 331 333 334 331 334 339 336 332 331 328 327 326 324 325 325 325 329 327 323 325 324 321 320
324 328 329 327 329 331 330 329 326 323 325 327 326 326 328 331 330 326 324 325 325 325 328 327 323 322 324 324 326 328 327 326 326 324 322 322 321 319 322 328 331 331 328 327 335 339 328 324 329 330 330 332 330 328 326 323 322 322 322 324 324 325 328 325 323 331 334 327 329 342 338 326 332 339 333 329 328 327 330 327 325 332 329 322 323 323 320 320
321 324 325 322 325 331 328 325 326 325 325 328 328 326 328 330 330 328 328 327 324 325 328 328 326 327 329 326 326 328 327 328 330 328 324 323 324 324 325 325 326 331 329 323 329 337 330 324 325 323 324 331 330 327 325 323 321 321 321 323 324 327 328 324 322 330 332 324 328 340 335 326 333 339 334 331 330 329 332 328 324 327 326 322 322 321 320 319
320 322 324 320 323 326 323 322 325 326 328 331 330 329 328 328 332 333 331 327 326 327 327 326 329 333 332 328 327 327 326 326 328 329 325 323 325 326 326 325 324 327 327 322 325 332 330 329 329 323 324 332 331 326 325 324 322 322 322 322 322 324 327 327 325 327 327 325 326 331 330 327 327 328 329 331 330 328 327 325 323 325 324 322 322 321 320 319
320 321 321 320 323 325 324 325 325 324 328 330 329 329 329 327 329 329 328 328 329 329 325 326 332 334 330 331 330 327 325 323 323 326 325 323 326 326 324 327 327 325 325 324 324 325 326 329 330 325 326 332 333 328 325 325 324 322 323 324 324 325 325 325 324 324 324 324 324 326 327 326 327 328 326 326 326 324 323 323 324 325 323 322 322 320 319 319
319 319 318 320 325 327 325 324 323 323 328 332 330 328 328 327 328 326 327 332 333 332 329 327 332 332 328 329 329 328 330 326 323 326 325 323 327 326 323 327 328 323 324 327 326 325 325 328 331 328 325 330 333 328 326 326 322 322 327 329 326 325 325 324 325 326 325 323 323 325 324 324 328 328 324 325 326 324 327 330 327 323 321 322 322 320 319 319
318 319 318 318 323 326 323 323 323 323 327 329 326 324 325 328 330 327 328 331 328 331 335 334 332 331 327 326 328 331 334 329 324 327 326 322 324 324 324 329 327 322 326 328 326 327 329 329 331 328 324 329 333 328 325 324 322 327 336 330 321 322 324 325 327 329 328 325 324 326 326 326 329 325 321 324 326 327 333 334 326 321 320 321 321 320 319 319
Wind_Speed
20 18 15 14 15 16 17 18 20 20 19 15 11 7 6 6 5 4 4 4 5 6 7 9 10 11 12 13 12 12 12 8 8 7 6 6 7 8 6 6 4 4 3 2 0 2 5 6 7 8 5 2 2 2 3 2 1 3 2 2 2 5 4 1 0 2 5 6 7 5 9 19 13 8 10 13 20 19 18 16 13 14 12 11 14 14 13 11
20 18 16 15 15 15 17 19 21 21 19 15 11 7 5 5 4 4 4 4 5 6 8 9 9 11 12 12 11 11 11 9 7 7 9 9 8 6 4 3 1 1 0 1 2 1 2 3 6 6 1 1 1 2 1 2 1 3 2 2 4 5 3 4 3 0 6 10 10 7 7 14 14 9 9 14 16 16 19 14 12 15 11 10 11 11 10 9
20 19 17 16 15 15 16 18 21 22 20 15 11 7 4 4 3 3 3 4 5 6 8 9 9 11 12 12 10 9 10 7 4 5 7 6 5 3 2 1 1 0 1 3 5 4 3 5 5 4 1 2 3 2 2 2 1 2 3 1 6 5 4 5 4 5 8 11 12 11 10 14 13 8 12 18 17 16 17 11 11 13 10 8 7 7 8 7
21 20 18 16 15 15 16 18 20 22 20 15 10 6 3 3 3 3 3 4 5 6 7 8 10 12 13 12 9 8 7 4 2 4 4 2 3 2 1 1 0 2 5 7 8 8 8 9 7 4 3 3 3 1 2 4 1 2 4 5 8 5 5 4 7 12 14 14 13 10 12 15 11 8 12 19 17 12 11 10 11 14 13 11 8 6 7 8
21 20 19 17 16 15 15 17 18 21 20 15 10 6 3 2 2 3 3 4 5 6 7 8 11 12 14 12 8 7 5 4 3 6 2 2 2 1 1 1 2 4 6 8 10 9 8 8 4 4 3 3 3 2 4 6 3 3 4 8 9 4 3 1 8 12 15 16 14 13 14 12 9 9 7 14 15 7 8 10 12 14 12 11 9 7 8 9
21 20 20 18 17 16 16 16 17 20 19 14 10 6 3 2 2 3 3 4 5 6 7 9 11 12 14 11 5 4 2 2 5 5 2 2 1 2 1 2 4 6 8 9 11 9 6 4 3 1 1 1 4 5 5 5 6 4 5 7 8 6 3 3 9 11 13 15 13 14 14 13 15 12 8 12 14 7 7 8 9 10 11 11 9 8 7 7
21 21 21 19 18 17 16 16 17 19 18 13 9 6 3 2 3 3 3 4 4 6 7 9 11 12 15 9 3 2 3 2 7 5 3 1 2 2 2 4 6 7 9 9 8 4 4 5 4 3 1 1 3 5 6 5 8 7 7 7 6 6 5 7 11 10 13 16 14 16 15 14 19 12 5 12 11 7 6 6 7 9 12 12 8 6 6 7
21 21 21 20 19 17 16 16 16 17 17 13 9 7 4 3 3 3 3 4 5 6 7 9 11 13 14 7 2 3 1 4 5 3 3 2 1 2 4 6 7 9 10 10 7 3 2 4 5 2 0 3 2 4 5 2 5 8 8 6 2 1 5 11 12 12 16 16 14 19 19 15 19 14 8 11 9 6 7 5 8 9 9 9 8 7 6 7
22 21 22 21 20 18 16 16 15 16 16 12 9 7 5 4 3 3 3 4 5 6 8 10 12 14 13 5 2 3 3 5 3 2 4 3 0 2 6 8 7 9 9 12 11 5 2 3 5 2 2 3 1 4 4 4 1 4 6 3 3 4 11 15 12 14 14 11 17 23 21 17 17 13 9 7 8 7 7 7 8 8 9 7 7 6 5 6
22 22 22 22 20 18 16 16 15 15 15 11 9 7 5 4 3 3 4 5 5 6 9 10 12 14 11 4 4 3 4 7 6 4 5 5 2 4 8 9 10 11 10 13 10 4 6 5 4 1 2 1 2 5 3 4 1 3 4 1 6 7 12 16 12 14 12 9 18 22 16 13 8 7 6 4 7 9 9 10 7 8 9 7 7 5 5 7
23 23 23 22 21 19 17 16 14 15 14 11 9 7 5 4 4 4 4 5 6 7 9 10 12 14 8 3 3 1 5 9 7 5 5 4 3 6 5 6 10 12 10 11 11 7 4 5 5 2 1 2 2 5 3 1 2 2 2 4 10 10 9 18 15 12 11 7 15 22 16 11 6 6 9 8 8 10 12 12 8 8 8 7 7 5 5 7
24 24 23 23 22 20 18 16 14 14 13 11 9 7 6 4 5 5 5 6 7 8 9 10 12 11 7 2 2 5 7 10 9 7 8 6 3 5 4 5 7 10 9 7 11 13 11 11 8 4 1 1 2 3 3 1 1 2 5 5 8 10 5 13 13 12 13 10 13 19 14 9 8 9 10 10 10 12 12 11 8 8 7 6 6 3 4 5
25 24 24 23 22 20 18 16 14 14 13 11 9 7 6 5 6 6 7 7 8 9 9 11 12 9 5 1 5 6 5 10 10 9 10 9 6 7 7 7 8 10 9 7 10 12 13 13 5 1 2 1 2 2 1 3 2 3 5 5 4 7 4 3 6 13 13 6 5 10 7 5 7 8 11 9 12 14 12 10 8 8 7 6 4 2 3 5
25 25 24 24 22 20 18 15 15 14 13 11 9 7 6 5 6 7 9 9 11 12 11 12 11 5 2 3 10 9 4 8 9 12 12 12 13 13 12 11 10 10 9 10 11 9 11 12 4 1 1 2 2 2 2 4 3 3 3 3 3 4 3 9 1 11 8 2 5 14 7 4 2 6 11 9 12 16 13 10 9 8 8 6 4 4 4 5
26 25 25 24 22 20 17 16 15 15 13 11 8 6 6 5 6 8 10 11 12 13 12 11 7 2 2 6 9 6 4 5 9 15 14 15 18 14 14 15 14 11 10 11 8 6 8 8 3 1 3 2 2 4 4 4 4 3 2 2 3 3 2 7 3 8 9 2 10 16 6 6 8 10 12 10 10 15 14 11 9 8 8 7 6 6 5 4
26 26 25 24 22 20 18 16 16 15 12 10 8 6 6 7 8 9 10 12 13 13 10 6 2 2 1 4 6 4 4 6 8 13 11 12 13 9 11 15 15 12 12 11 6 6 6 3 1 1 2 3 4 4 4 5 5 4 3 1 3 2 2 5 4 4 9 5 5 12 7 5 8 11 11 9 9 13 12 11 10 8 8 8 6 6 5 5
25 25 25 24 22 20 18 17 16 14 12 10 8 6 7 9 11 11 12 12 11 9 6 3 1 3 1 5 5 3 6 9 8 9 9 9 9 7 7 8 8 10 11 9 5 5 4 2 1 1 2 3 3 4 5 4 3 4 2 2 2 2 2 3 4 6 9 11 7 11 10 6 9 12 11 9 10 12 11 10 9 8 8 7 7 7 6 5
25 25 24 24 22 19 18 17 15 14 12 10 9 10 10 11 13 13 10 8 6 5 3 2 1 3 2 5 4 4 5 8 6 6 8 11 12 9 6 4 3 4 4 6 3 2 2 2 2 2 4 4 3 5 4 1 2 2 1 2 1 2 3 2 2 5 8 13 10 10 8 8 11 12 11 9 10 11 10 9 8 7 7 6 6 7 6 6
25 24 24 23 21 19 17 16 15 14 11 7 9 13 12 12 10 6 6 4 1 2 2 2 2 1 3 3 5 5 3 4 3 6 8 11 12 9 7 5 1 1 1 3 3 2 1 2 4 2 4 1 3 4 5 6 6 6 3 4 3 2 1 2 2 2 6 11 8 10 10 10 12 11 11 9 8 10 9 8 7 6 6 5 5 6 7 6
24 24 23 22 20 18 16 15 14 13 9 8 12 12 9 9 6 4 7 5 2 5 6 5 4 4 4 2 3 2 3 5 4 5 8 10 8 3 4 4 1 3 1 2 3 2 4 3 2 3 4 4 6 6 6 5 7 6 4 4 4 4 2 2 2 4 4 8 4 10 13 12 12 11 11 9 8 9 10 10 8 8 8 7 7 6 7 6
24 23 22 21 19 17 15 14 12 11 10 11 13 7 2 3 2 2 6 6 7 9 9 9 9 8 5 3 3 2 1 3 3 6 9 9 4 1 3 2 2 2 3 4 2 2 5 4 3 6 7 6 3 6 5 5 8 7 5 4 2 3 2 2 0 4 3 6 2 8 12 11 11 11 10 10 10 10 12 13 11 10 10 8 8 9 7 6
23 22 22 20 18 16 15 13 11 11 12 14 11 2 1 3 2 2 3 3 10 9 7 9 9 7 6 3 3 2 2 1 5 7 7 5 2 1 3 1 1 4 5 2 2 5 5 1 5 7 5 4 1 6 5 4 7 6 4 5 2 2 1 3 2 2 3 5 4 7 10 9 11 12 12 14 14 13 14 15 14 14 13 11 11 11 9 8
23 22 21 19 17 15 15 13 10 12 14 12 7 4 6 6 7 9 4 1 7 8 5 6 4 4 4 2 2 2 3 0 3 4 3 1 2 0 1 2 3 4 3 4 4 3 2 3 7 6 3 4 3 4 6 6 5 5 4 4 2 3 1 1 4 2 2 2 6 7 6 5 9 11 12 14 14 12 13 15 15 15 14 14 13 11 11 12
22 22 20 19 16 13 14 10 9 14 14 7 5 9 11 8 10 10 3 1 4 5 5 6 3 3 3 1 1 2 2 1 3 3 3 1 1 1 0 1 3 3 2 4 6 5 3 5 4 3 5 4 5 4 7 6 3 3 4 4 3 3 4 4 3 2 2 2 4 7 4 2 7 9 10 10 8 7 10 12 12 11 10 11 12 11 11 12
22 21 19 19 16 13 11 6 10 17 11 6 6 13 13 9 11 10 3 2 3 5 5 4 1 1 1 1 2 3 2 1 2 4 2 2 2 1 1 1 2 4 2 4 6 4 2 3 1 4 6 4 6 4 3 6 4 2 4 5 6 6 5 5 3 2 3 3 2 5 4 2 2 8 11 9 6 7 8 11 12 10 9 10 12 11 10 10
22 20 18 18 16 14 8 1 11 17 7 6 11 14 13 11 13 9 3 3 2 4 3 1 1 0 2 2 3 2 5 3 5 4 1 2 1 1 1 3 2 1 3 5 4 1 1 4 5 3 3 4 6 3 2 5 5 2 5 6 7 6 6 7 5 3 2 3 4 3 5 3 4 3 9 10 9 10 10 12 13 11 11 12 12 11 10 10
21 19 17 16 15 14 6 2 12 12 2 6 15 16 15 13 12 6 3 5 3 4 3 1 1 0 3 3 2 5 2 4 5 4 1 1 1 3 2 3 3 2 2 4 3 1 1 5 8 5 4 4 4 2 1 5 7 3 5 5 6 5 6 9 9 6 4 2 3 4 5 3 2 4 6 8 10 10 13 14 13 11 12 13 12 12 12 11
21 19 16 14 14 12 6 7 12 7 3 12 19 18 15 11 8 3 5 4 2 2 1 2 1 1 2 2 2 3 3 3 1 6 4 2 0 4 2 3 1 4 4 6 2 4 1 3 3 4 6 3 1 3 3 5 4 5 7 3 2 2 3 6 9 5 2 3 2 4 3 3 3 5 3 4 7 9 13 16 14 13 13 12 12 12 12 11
21 18 16 13 12 8 6 9 9 7 11 17 20 18 14 9 5 4 5 1 2 2 1 1 1 3 3 4 3 2 2 2 3 5 4 2 2 2 1 4 2 3 4 6 5 4 1 2 5 6 4 1 4 5 3 5 2 5 3 3 4 4 3 4 6 3 3 5 2 5 1 2 3 5 2 2 4 7 10 12 13 14 13 12 12 12 12 10
20 17 15 14 11 7 8 9 6 8 14 18 20 17 11 6 4 5 3 1 2 3 2 2 2 3 4 5 4 3 1 1 2 2 2 2 2 2 0 2 2 2 4 4 3 4 1 0 2 4 2 3 2 4 2 2 2 1 5 5 5 6 5 4 3 4 5 2 4 6 3 4 1 5 3 4 5 8 9 8 10 11 12 12 12 13 12 10
19 16 14 13 11 8 8 6 5 8 13 17 18 12 6 4 4 5 0 1 1 3 3 3 3 4 5 4 4 3 1 2 1 1 1 3 4 4 3 3 3 4 5 5 2 3 4 4 1 1 3 3 3 4 6 5 3 4 5 4 3 5 5 4 5 4 3 2 5 4 2 5 1 5 4 5 6 8 13 11 11 12 12 12 11 12 12 10
19 15 12 11 10 9 7 5 6 9 12 16 14 6 4 4 3 1 1 1 1 2 2 2 3 4 5 4 3 3 1 1 1 2 2 1 1 1 1 2 2 3 4 2 1 4 4 1 2 1 2 1 5 3 6 7 6 5 4 5 4 3 4 3 3 2 0 4 5 3 2 1 3 6 6 7 7 6 12 14 14 15 14 13 12 12 11 9
19 14 10 8 9 9 8 6 6 8 12 15 9 4 5 4 1 2 1 2 1 2 1 2 4 5 4 4 3 3 1 1 1 0 2 1 2 1 0 1 4 5 1 1 2 4 3 4 2 3 4 2 6 3 2 3 4 3 0 3 4 2 3 1 3 2 1 4 5 3 1 1 3 5 7 8 8 7 10 14 16 16 16 15 14 14 11 10
19 14 10 9 9 8 6 4 3 5 12 11 5 5 6 4 2 2 1 2 2 1 1 2 5 5 3 1 3 1 2 2 1 1 1 3 3 1 1 3 3 5 3 2 2 1 2 4 3 1 2 1 3 3 5 3 2 2 2 5 4 3 4 2 3 2 3 3 4 3 1 2 2 4 7 7 6 5 7 11 12 12 14 14 13 13 12 10
18 13 10 9 8 5 1 2 1 3 7 6 5 5 4 2 3 1 0 3 2 3 4 3 3 4 3 3 4 1 1 2 2 2 2 2 2 2 2 1 0 4 4 3 0 0 3 3 6 2 1 3 2 3 4 4 2 3 1 5 1 3 5 2 2 4 3 1 2 2 2 3 3 4 6 1 3 4 6 9 10 8 10 12 12 12 11 10
18 13 7 6 5 0 3 3 3 0 3 5 6 3 2 3 2 1 2 2 1 1 4 5 4 3 4 4 4 6 3 0 1 2 2 1 3 2 3 2 2 3 5 3 1 1 2 3 7 4 2 3 5 4 3 5 1 2 2 1 3 3 6 3 1 1 3 2 3 1 2 4 2 3 6 5 6 5 7 9 10 9 10 12 12 11 11 11
20 13 6 5 4 4 4 2 4 2 3 6 5 1 3 3 1 2 1 0 1 1 4 3 2 1 3 3 4 8 7 4 3 2 2 1 1 1 1 1 2 1 5 4 2 2 3 2 7 2 3 6 4 3 1 3 5 3 1 3 1 3 4 4 1 3 4 0 4 2 3 4 1 1 5 5 5 5 5 9 10 10 11 12 12 12 13 13
17 11 6 5 1 7 6 4 5 3 4 5 2 2 2 1 1 1 1 1 1 3 5 1 2 1 3 2 3 6 5 4 5 3 2 1 1 2 0 2 4 3 3 5 3 1 4 1 7 2 1 6 3 6 4 5 2 4 4 2 3 3 1 1 1 0 1 1 3 4 3 2 2 3 3 0 5 7 6 8 10 11 11 11 12 12 13 13
10 5 4 3 5 9 8 6 4 4 5 3 1 2 2 1 1 2 2 2 2 3 3 1 1 2 2 1 2 5 4 3 4 3 1 0 1 3 2 1 2 4 4 6 4 1 3 3 4 5 3 4 4 4 1 5 4 2 1 3 3 3 3 1 1 2 2 1 2 3 3 1 4 5 4 6 7 9 8 7 9 12 12 11 12 12 13 13
4 3 2 2 8 9 6 5 4 5 3 1 3 2 2 2 1 3 3 1 2 3 1 2 1 1 2 1 2 3 2 3 4 2 1 1 1 2 5 3 3 3 6 7 4 1 3 3 2 6 5 3 1 1 3 3 1 2 1 1 2 1 1 0 1 1 3 3 2 1 2 4 5 4 6 8 7 9 11 9 9 10 10 10 12 13 13 12
4 3 1 2 5 4 2 4 3 2 2 1 2 2 2 2 1 2 3 1 2 3 3 3 3 2 2 1 2 2 2 3 3 2 2 3 2 1 5 5 2 2 4 6 4 1 1 2 2 4 4 1 4 5 3 4 5 5 4 3 3 2 2 2 2 3 1 3 4 3 2 6 5 3 4 6 7 8 10 10 9 8 9 9 10 12 13 13
3 2 3 2 2 3 3 3 2 1 2 3 3 3 1 2 2 1 1 2 1 1 2 2 2 2 1 1 1 1 3 2 2 2 1 2 4 1 3 3 3 4 4 3 1 1 2 3 1 3 4 4 7 6 3 3 2 4 2 2 3 3 4 4 2 3 0 0 1 2 1 6 5 3 4 5 6 7 8 9 9 8 9 10 10 12 13 13
2 3 6 6 3 2 5 3 4 3 1 5 3 1 1 2 1 0 1 3 2 1 2 0 1 2 1 1 1 2 3 1 2 2 0 1 2 1 3 0 4 4 4 2 2 2 2 3 2 3 4 5 7 6 3 4 5 4 2 1 2 2 3 5 5 3 2 2 0 1 2 5 6 4 4 4 4 5 7 8 9 8 8 8 9 9 9 9
2 5 5 7 3 1 4 1 2 2 4 4 3 2 1 1 1 2 1 1 1 1 1 0 0 2 1 1 2 1 0 2 1 3 1 0 1 2 0 3 5 4 2 2 2 0 1 1 2 2 4 6 6 6 6 6 5 2 3 3 0 1 2 1 1 3 1 4 4 3 3 6 5 3 2 2 2 3 4 6 9 9 8 7 7 7 7 8
3 2 4 7 6 3 2 3 3 2 4 3 3 3 2 2 1 2 2 1 1 2 2 1 1 1 1 1 3 2 0 3 1 3 3 1 2 2 4 6 6 3 0 2 3 3 1 2 3 3 1 2 1 1 2 3 4 3 4 6 4 2 4 2 1 2 2 4 4 5 4 6 6 5 5 4 2 3 3 3 5 7 9 8 7 7 7 8
2 2 3 6 6 4 1 2 3 1 4 1 2 3 0 1 2 1 2 0 0 2 2 0 1 2 2 3 3 3 2 1 1 1 3 3 3 3 3 4 4 3 2 3 4 4 3 1 2 5 5 5 5 4 4 2 2 4 6 8 8 4 2 4 2 1 3 2 1 4 5 3 6 6 5 5 4 5 5 5 4 5 8 9 9 9 9 9
2 2 2 3 3 4 4 3 4 3 3 0 1 3 1 1 2 0 1 1 1 2 2 1 1 2 1 1 2 2 4 3 2 1 2 2 2 3 4 4 4 2 2 3 2 4 5 3 2 4 4 5 6 6 5 2 2 4 5 6 8 9 4 1 2 4 4 1 4 6 5 3 6 7 6 6 6 6 7 7 7 7 8 8 8 9 10 9
1 1 0 1 1 1 3 4 5 6 6 3 1 2 1 1 1 1 1 1 1 2 2 2 3 1 3 3 3 1 3 4 3 1 1 1 1 3 5 4 3 2 3 2 3 4 5 1 3 2 2 5 4 5 4 2 3 5 5 7 8 8 7 6 7 6 6 4 7 7 6 6 7 6 7 8 8 8 8 9 8 7 7 8 8 10 11 10
2 1 2 2 1 2 3 5 6 7 7 4 2 2 1 2 3 4 2 1 2 1 3 1 4 5 2 2 4 2 1 1 2 3 1 1 1 1 2 2 3 3 3 2 1 3 5 1 4 2 2 5 5 5 4 4 4 5 7 8 8 8 9 8 8 7 6 7 8 7 7 8 7 7 9 9 8 8 6 5 5 6 8 9 10 11 12 11
2 1 3 3 3 3 4 4 4 5 6 4 2 3 1 2 1 3 1 4 2 3 1 3 6 4 1 3 5 3 3 5 3 4 2 1 2 0 1 1 2 2 3 2 1 2 3 2 4 2 3 5 6 5 5 4 4 5 8 8 7 7 7 6 6 6 6 7 8 7 7 8 7 8 9 9 7 5 4 5 5 7 9 11 12 12 13 13
3 3 2 1 2 3 3 4 3 4 4 3 1 3 2 1 2 0 2 2 6 4 3 4 5 3 2 3 3 3 6 6 5 6 6 3 2 3 2 3 3 1 3 0 0 2 2 1 2 4 3 5 5 4 6 6 5 5 7 7 6 6 6 6 6 5 5 6 7 6 5 6 7 6 5 7 6 5 6 7 7 8 10 12 13 12 13 14
7 5 3 2 1 3 3 3 4 3 2 2 4 5 4 5 3 2 1 3 1 3 4 6 5 2 2 1 3 6 7 6 6 7 6 4 5 5 4 4 5 4 2 2 1 1 3 2 1 2 0 5 5 3 4 5 6 5 5 3 3 5 6 7 6 5 5 5 4 4 5 6 6 4 3 6 7 6 6 7 6 8 10 11 12 13 13 14
Wind_Direction
19 20 20 19 16 14 11 9 8 7 8 6 2 3 12 17 19 26 17 12 9 3 5 6 7 4 2 357 352 350 346 334 315 291 270 282 279 281 269 242 259 283 289 285 258 2 333 328 313 292 291 300 175 211 270 237 189 81 104 170 238 252 247 290 315 112 116 112 109 129 111 111 113 100 105 70 65 75 72 64 63 65 68 83 103 122 135 139
19 19 18 16 15 12 10 8 7 6 5 4 0 358 8 14 14 19 7 2 0 358 6 6 6 4 2 357 349 349 344 329 315 283 270 282 281 272 246 231 254 300 304 204 249 340 341 311 327 338 339 239 265 204 221 252 154 134 162 149 235 239 238 265 281 179 131 120 104 92 88 102 110 122 116 88 81 87 87 81 84 87 81 85 104 126 141 153
19 18 16 13 11 9 8 6 6 4 2 2 359 355 1 10 10 2 354 354 355 359 4 3 3 1 0 356 346 347 339 331 325 285 285 282 253 232 194 116 94 28 282 268 286 292 268 269 296 326 191 206 264 193 172 250 225 188 165 167 247 232 245 279 9 66 112 108 92 85 79 84 93 103 102 101 97 92 98 108 112 110 112 110 110 115 123 126
19 18 15 11 8 4 2 1 2 0 359 360 358 355 355 4 3 343 340 348 355 0 358 360 2 359 358 351 345 339 336 358 334 281 291 254 205 190 155 64 316 283 279 283 293 292 285 274 251 220 194 217 251 147 178 234 241 203 158 201 239 212 242 287 73 93 100 96 93 94 84 79 79 85 106 113 104 93 105 120 127 127 131 134 130 114 114 112
17 16 14 10 5 0 356 355 356 357 357 358 358 354 349 353 340 327 335 349 355 352 351 357 359 357 352 346 340 327 346 39 292 283 283 219 200 211 236 315 290 289 289 293 297 302 298 277 231 191 182 194 202 142 225 225 185 245 214 219 234 197 226 307 102 113 110 109 109 100 86 83 75 58 75 105 106 124 134 131 134 131 133 135 135 136 133 119
14 13 12 9 4 359 353 352 353 355 355 356 357 353 349 341 320 322 336 348 347 343 351 356 354 353 348 347 344 327 35 92 269 279 279 229 255 277 293 294 285 292 292 295 299 314 326 324 357 267 203 164 190 185 237 221 176 233 260 241 238 210 214 84 109 120 115 112 107 101 99 102 91 63 29 77 102 142 139 131 131 125 127 127 129 136 130 114
11 10 10 7 4 359 353 352 352 353 354 355 357 355 352 333 318 321 332 341 338 340 350 349 346 349 349 352 358 22 89 234 263 262 249 230 281 297 313 289 284 288 283 289 294 312 341 337 328 267 240 325 222 218 245 217 188 211 246 258 242 210 193 114 116 119 109 106 105 108 106 100 97 90 50 79 101 125 111 109 109 110 117 120 123 116 108 104
9 8 7 5 2 358 354 351 350 352 353 352 354 356 354 339 321 317 326 329 329 340 344 341 344 348 352 358 10 26 41 243 248 235 213 190 278 296 299 288 283 275 271 276 262 232 354 303 268 224 179 295 244 250 271 234 194 213 239 263 286 230 114 107 116 113 107 109 111 106 99 94 101 106 98 100 113 112 105 101 94 95 95 101 104 98 99 101
8 6 5 3 1 358 354 350 349 350 351 351 352 354 353 341 322 315 317 316 327 336 334 337 342 347 354 7 59 30 284 225 171 134 155 153 231 290 284 283 283 277 278 283 263 218 176 258 256 172 157 275 322 303 320 39 13 237 252 280 16 45 97 110 117 110 108 114 109 102 102 111 116 108 88 107 129 121 107 92 87 92 86 84 93 90 84 92
6 6 5 2 1 358 355 350 348 348 349 348 347 349 348 337 318 310 309 313 325 329 332 339 342 347 356 23 67 42 253 206 156 126 135 141 195 264 281 284 285 280 277 284 281 208 186 230 275 208 167 276 332 308 356 67 325 265 263 7 48 48 106 118 115 111 108 104 106 104 106 115 124 109 103 154 150 129 111 99 100 100 98 100 100 89 76 85
5 5 4 3 2 359 356 351 346 347 347 344 342 342 337 326 313 305 304 310 321 329 333 337 343 346 348 47 94 208 222 197 178 167 159 152 223 252 276 299 288 276 268 277 299 309 266 290 335 52 45 19 333 304 336 124 222 277 348 43 30 26 105 123 123 127 111 101 107 100 89 81 67 86 128 166 154 129 116 113 119 111 111 113 105 99 93 97
4 4 4 3 1 359 355 350 346 346 344 340 336 331 327 321 314 308 305 311 319 326 330 337 344 340 337 49 176 228 204 208 216 205 196 187 232 267 279 302 282 272 275 279 300 316 326 328 355 55 275 352 4 324 336 317 172 45 51 60 18 19 94 126 129 138 119 133 130 98 76 63 80 116 144 157 138 124 117 120 127 119 118 111 106 115 115 121
3 2 3 3 1 359 355 349 346 344 342 337 329 328 323 314 314 309 307 313 318 323 328 336 335 328 345 14 281 289 220 223 235 226 221 210 232 275 276 282 272 268 277 275 289 310 324 322 337 68 244 187 309 279 313 335 35 32 47 83 30 28 358 352 116 132 121 163 169 92 79 57 73 128 150 151 132 123 119 126 134 127 123 117 129 143 121 124
2 1 2 2 1 360 356 352 347 344 343 335 328 326 312 304 310 305 308 315 320 324 329 335 330 327 26 291 295 312 243 215 214 221 231 220 228 255 264 266 262 257 257 266 283 298 308 316 337 16 272 180 257 305 5 350 34 30 25 58 46 67 322 314 72 120 97 338 83 92 110 123 121 171 153 152 138 126 126 136 140 138 136 134 148 140 121 119
0 -0 0 1 1 2 360 354 348 346 344 336 329 318 302 299 296 301 311 316 318 320 322 329 330 352 20 305 305 316 241 208 208 226 238 229 224 241 257 249 243 250 255 261 277 287 298 325 11 19 294 295 24 35 12 347 17 35 47 4 358 85 281 307 343 103 103 101 93 96 109 136 155 177 156 155 145 130 132 143 145 145 140 137 140 131 123 121
359 359 359 0 2 3 2 355 350 348 346 338 329 307 298 296 293 302 308 310 313 313 316 326 359 65 50 298 315 320 247 230 231 237 241 238 228 230 246 238 236 247 255 259 261 276 300 356 69 180 291 341 51 70 36 12 358 6 82 78 331 61 326 315 345 63 112 120 67 99 126 141 151 166 155 155 148 133 135 144 145 143 139 135 134 132 128 126
358 357 358 360 2 3 1 356 350 348 347 339 330 311 300 295 293 297 302 307 308 304 306 290 50 59 267 278 308 298 236 229 237 240 234 248 251 232 217 223 243 246 253 273 275 280 316 16 334 326 3 18 66 84 54 22 336 327 46 85 314 58 37 334 340 357 80 99 86 106 126 142 148 154 154 162 151 136 138 144 144 144 144 142 140 140 139 135
356 355 357 359 0 2 1 357 350 349 349 341 336 330 322 313 299 292 299 307 304 321 337 280 59 63 289 276 260 247 228 214 233 267 252 251 256 252 238 236 266 246 277 321 314 312 355 355 13 25 1 16 54 81 92 204 182 229 227 110 305 37 49 349 323 339 63 97 110 112 119 131 140 151 155 162 152 138 142 144 146 150 141 142 148 146 147 145
355 354 355 357 359 1 1 358 351 350 353 344 342 346 350 347 328 308 324 333 323 351 314 249 124 108 267 252 235 250 253 219 255 296 275 263 259 260 269 267 240 124 49 356 318 322 64 9 24 26 324 346 144 137 163 190 161 177 190 130 151 127 13 292 279 297 79 97 124 130 132 139 144 154 153 157 154 139 142 144 149 153 140 151 165 155 153 153
353 353 353 355 357 358 360 358 352 349 351 345 347 358 16 11 2 350 340 336 213 226 246 236 200 230 279 260 221 238 280 274 268 254 261 277 272 260 287 278 36 48 123 185 272 297 93 62 336 228 252 234 186 176 176 162 133 139 126 110 141 144 224 273 328 305 80 100 159 148 142 153 152 154 155 155 151 143 148 155 162 162 159 170 175 165 160 155
352 353 353 354 354 356 357 356 350 342 342 349 355 12 63 14 26 307 322 312 271 247 243 250 234 233 257 247 210 165 254 279 276 266 265 277 297 35 303 275 75 329 246 194 247 342 67 62 285 235 235 261 222 169 163 134 117 116 117 114 132 156 223 264 315 308 44 92 164 152 142 155 153 149 157 154 152 166 167 162 170 171 170 175 173 168 162 150
352 352 352 353 352 352 352 354 352 344 350 358 5 34 260 9 58 304 326 308 293 281 254 264 251 233 250 253 213 162 89 350 304 301 270 261 4 35 282 0 121 248 244 180 32 8 34 29 276 262 247 297 264 158 137 96 103 98 107 119 154 206 285 311 297 336 33 88 143 163 147 159 167 157 163 168 168 181 177 167 171 173 175 178 173 168 161 154
352 350 352 352 350 348 348 356 0 353 360 5 9 0 342 2 5 340 348 225 290 297 274 267 243 211 257 299 186 145 72 345 272 298 284 331 34 243 249 353 277 244 200 157 140 79 37 258 264 275 311 22 33 123 95 57 67 97 118 122 175 235 121 293 294 2 27 92 135 153 135 148 176 165 169 183 182 181 178 172 173 177 182 178 170 166 161 160
351 349 351 350 348 346 344 356 10 2 6 27 31 2 358 0 351 347 2 174 291 290 265 259 238 179 215 267 157 124 80 222 215 253 284 57 51 300 101 277 299 357 75 138 129 122 177 240 247 334 349 34 59 72 100 88 64 116 148 146 164 214 175 188 261 0 21 2 124 126 82 107 174 172 184 200 197 178 172 173 175 183 184 166 158 163 165 164
350 348 348 350 348 345 345 359 9 2 13 57 22 354 360 356 342 351 39 51 317 290 282 279 298 148 231 310 189 160 92 298 243 228 221 111 100 355 0 276 7 38 79 120 99 103 183 255 34 33 340 357 60 60 133 128 117 165 210 196 187 200 189 188 232 39 37 315 229 114 88 292 216 174 188 199 198 179 171 179 182 181 170 157 158 165 168 169
349 345 346 350 345 343 353 20 356 358 18 36 358 340 338 333 336 349 49 56 337 291 305 286 110 74 305 287 190 97 47 317 262 241 177 101 121 103 31 326 13 103 178 139 102 113 245 353 28 43 334 3 52 61 187 131 114 220 236 191 188 199 192 190 180 136 125 246 257 107 128 245 309 213 197 189 190 187 177 183 187 178 167 164 167 167 169 174
348 344 342 347 346 347 0 339 347 359 39 344 338 331 322 317 330 349 64 48 345 284 303 286 76 81 256 240 151 87 63 264 287 310 293 104 34 67 55 320 354 294 254 93 63 262 250 19 29 34 31 44 53 48 190 123 111 233 242 163 170 221 225 199 172 167 198 194 336 21 103 130 286 258 223 183 177 180 181 187 189 180 174 170 168 168 170 173
347 343 337 341 346 343 342 337 342 355 348 331 330 329 326 319 326 14 90 67 293 281 315 281 331 270 270 326 45 105 197 209 27 298 272 161 27 51 46 284 278 281 282 98 108 260 283 43 58 64 45 46 225 240 201 131 114 242 243 159 126 283 253 178 155 170 202 98 353 315 76 103 258 274 272 172 160 172 186 192 187 182 179 172 166 166 168 168
346 343 333 333 339 330 321 331 339 348 342 336 332 328 327 327 343 56 84 96 267 303 327 304 335 300 319 354 333 272 236 131 143 259 282 120 187 87 99 238 197 284 294 109 143 232 203 163 166 116 67 318 253 259 208 130 145 256 269 52 44 17 26 100 123 133 51 73 216 260 101 111 264 284 300 159 165 178 189 194 188 183 179 171 163 162 165 168
344 341 331 326 328 318 308 314 330 346 340 337 332 326 324 336 41 66 48 270 268 286 287 358 352 317 352 6 315 288 213 204 217 245 340 14 2 40 74 241 88 50 347 49 122 222 267 270 160 114 135 205 217 296 311 123 189 302 26 39 32 16 26 45 68 90 63 30 249 249 202 130 270 280 235 198 204 172 167 188 189 180 174 169 164 163 167 170
341 339 330 320 314 306 300 307 330 334 336 338 333 331 344 9 66 83 90 237 280 308 330 359 341 339 4 8 314 298 202 241 286 104 0 358 18 12 17 10 26 48 14 10 21 312 352 16 348 156 202 180 80 359 331 341 356 51 50 51 39 353 7 20 359 40 73 268 263 250 181 120 142 264 237 234 242 168 155 176 184 175 172 168 165 168 168 168
341 336 325 314 306 294 280 288 321 327 336 341 338 355 61 41 39 98 243 303 315 302 321 316 312 331 342 339 298 274 247 254 328 109 182 112 56 267 148 143 150 49 7 318 342 343 348 280 255 334 299 116 87 20 331 345 15 48 45 56 68 359 3 14 333 357 135 245 255 226 143 105 226 245 237 233 247 191 162 171 175 171 169 165 166 170 167 167
340 335 323 311 304 299 288 291 316 331 337 340 348 49 75 71 21 242 284 350 255 244 282 314 314 315 329 339 307 286 313 248 240 47 216 124 88 228 243 173 136 101 95 205 42 3 339 308 335 41 340 27 104 98 320 330 1 15 1 106 108 94 53 330 280 325 279 269 278 249 182 301 284 270 245 223 224 204 166 165 172 171 168 165 167 167 167 170
340 335 318 301 300 306 297 284 299 322 332 343 29 62 57 78 247 265 20 314 265 281 329 327 320 316 330 305 259 287 16 277 241 70 9 36 48 85 40 347 52 100 109 82 52 67 57 323 297 165 263 270 123 163 172 161 2 316 189 130 128 144 136 204 227 195 235 272 303 297 158 184 219 260 254 225 207 186 149 153 163 164 163 161 161 163 165 170
339 333 313 297 302 316 295 175 171 318 336 7 65 65 69 140 253 303 20 271 307 353 323 329 355 346 336 301 279 301 119 226 288 41 47 72 98 154 166 255 32 106 96 78 315 79 82 273 262 258 210 169 182 220 151 104 19 296 111 91 114 180 148 160 191 177 183 281 311 285 214 211 205 263 288 355 104 100 110 130 134 136 150 151 154 163 167 168
339 337 318 287 284 251 109 116 142 176 15 59 67 54 153 199 220 160 211 256 53 346 333 353 19 24 340 321 331 344 7 223 326 24 356 110 131 174 185 192 197 132 114 120 174 36 56 280 275 304 313 200 191 203 146 119 143 312 42 96 233 167 123 111 282 315 82 81 279 261 257 290 332 309 318 30 80 89 100 125 134 136 145 151 158 166 169 171
341 344 326 280 254 173 146 128 163 171 51 78 88 174 215 224 215 182 225 307 96 90 63 26 336 22 354 336 341 339 345 345 338 5 310 287 142 242 195 101 355 115 137 137 156 180 130 291 283 258 251 257 209 132 86 144 139 108 95 214 213 60 75 104 96 358 41 90 276 288 252 283 15 291 318 25 93 127 124 134 141 144 148 156 167 170 171 173
336 339 324 309 217 170 179 174 157 131 63 71 98 233 227 246 259 198 180 126 68 62 79 77 268 34 27 10 326 320 340 350 335 336 291 270 27 315 321 71 5 9 129 120 84 172 117 31 293 293 332 291 332 62 355 316 70 130 172 183 101 86 345 29 112 327 24 236 281 308 287 247 177 218 275 317 160 164 160 149 148 159 163 163 169 170 170 170
337 347 349 3 128 157 171 166 139 77 62 65 249 255 243 214 236 221 187 139 88 73 77 206 263 21 22 52 291 302 340 352 328 332 315 123 90 322 331 90 38 19 49 88 100 205 95 88 280 301 357 317 342 43 281 294 339 54 75 14 44 138 168 180 173 162 152 201 256 312 329 265 227 218 194 206 197 169 167 170 168 176 175 167 168 168 170 173
2 31 351 97 137 155 161 136 86 58 74 147 205 219 233 189 207 246 226 165 115 115 135 218 194 23 308 326 307 290 338 344 331 347 348 10 74 345 353 29 90 47 34 55 79 79 52 86 245 299 346 15 331 276 194 219 242 80 72 336 354 43 121 123 284 158 134 144 185 235 310 272 256 217 181 201 199 171 172 179 185 190 180 170 170 169 171 176
6 36 267 136 134 172 132 86 60 82 129 251 221 218 241 175 135 284 275 5 115 153 158 173 166 174 219 313 336 309 340 338 335 11 4 6 64 69 342 1 69 76 38 37 41 47 66 114 206 294 334 335 239 243 245 241 209 155 160 196 170 135 122 105 303 286 119 133 165 166 249 265 261 228 198 200 188 180 180 178 185 195 185 176 178 175 175 176
24 42 259 341 325 286 58 67 312 104 143 257 236 215 234 127 109 261 291 21 49 144 99 133 169 166 191 248 289 343 17 342 324 18 15 11 62 93 304 349 69 90 85 59 333 235 133 104 54 284 261 248 262 271 281 263 203 127 130 163 142 123 115 126 206 256 297 12 196 133 214 265 266 245 222 214 193 181 180 179 183 191 190 187 186 184 180 176
43 293 294 351 324 281 63 43 313 2 253 259 250 206 79 97 96 46 30 22 12 35 41 9 161 106 125 205 153 31 32 37 313 354 337 351 40 238 256 330 76 71 74 72 298 310 72 81 35 305 287 296 304 312 353 39 63 59 353 15 136 151 141 154 177 180 178 236 270 83 265 271 274 255 224 226 205 166 166 176 179 188 200 196 189 188 179 171
334 272 295 358 358 151 76 90 280 320 284 298 339 335 357 96 112 88 72 356 297 124 82 297 121 105 214 195 109 30 64 113 317 322 340 236 251 233 260 62 71 70 75 173 186 46 0 84 81 20 336 337 342 350 356 3 27 24 306 312 179 80 48 84 133 89 218 222 160 144 237 259 272 297 316 279 223 173 182 185 178 185 196 196 191 188 172 159
328 264 277 336 358 50 105 178 166 228 274 328 342 296 330 25 13 130 156 216 223 149 120 265 263 144 240 28 42 334 116 133 225 317 354 321 297 15 37 46 64 79 153 163 127 98 111 155 114 106 170 259 276 324 320 319 332 329 315 320 325 42 57 39 84 79 268 239 151 150 216 261 288 318 335 310 211 187 246 235 187 183 185 183 181 179 171 160
8 12 302 328 358 29 352 206 101 349 279 0 354 299 72 72 297 175 139 146 292 113 105 197 284 64 41 35 28 325 315 138 186 0 8 345 339 356 12 41 67 93 107 95 86 82 89 79 113 138 163 192 199 216 230 241 316 305 303 315 313 309 85 93 90 145 201 207 219 216 207 247 290 294 300 281 208 193 235 232 197 185 180 179 177 175 173 167
55 16 354 345 339 354 346 349 36 4 296 130 72 291 238 173 292 345 99 221 180 107 67 0 53 79 73 47 48 297 300 341 22 62 23 0 347 328 347 40 61 70 88 72 51 86 85 2 305 156 182 211 203 226 258 274 272 267 277 295 297 296 307 21 241 221 175 140 280 255 199 197 263 261 250 245 224 210 223 217 202 195 184 177 174 170 165 162
17 346 57 78 265 317 343 328 338 333 309 279 221 262 241 180 215 205 253 286 143 105 84 341 321 255 208 178 136 240 308 351 5 344 323 3 358 343 354 8 353 2 63 43 6 91 105 283 262 191 256 263 243 262 287 309 284 276 281 281 284 289 282 266 252 220 168 183 246 239 200 207 241 246 233 231 225 220 223 214 199 191 180 165 160 162 162 161
11 3 329 12 356 261 275 291 307 322 313 296 286 286 223 188 217 236 221 95 358 315 123 149 278 273 251 163 128 129 291 348 326 293 277 17 354 17 17 337 311 340 65 78 355 82 103 238 245 184 328 308 294 292 321 358 326 304 300 287 274 265 251 245 254 238 205 220 239 232 227 235 240 235 235 235 228 226 238 228 182 169 168 160 159 166 168 167
37 327 317 352 338 286 279 296 321 333 326 329 314 286 254 153 208 296 304 124 152 281 175 173 235 239 116 98 110 134 204 176 191 242 204 67 347 301 135 214 237 326 19 70 350 37 88 241 248 107 39 312 297 311 340 354 321 295 296 287 277 277 265 245 243 245 237 247 253 249 253 261 253 234 237 246 241 233 256 247 200 177 170 164 166 173 174 176
4 307 310 5 320 309 317 324 345 343 325 340 324 294 315 259 201 327 326 178 163 189 195 180 211 220 84 92 123 201 217 184 189 220 203 182 217 203 203 203 174 34 345 297 90 46 99 231 317 62 43 290 285 329 333 329 326 301 284 284 300 308 287 256 238 224 209 223 249 266 272 265 260 250 254 263 257 233 228 223 198 184 178 169 172 180 180 183
10 346 4 65 302 319 352 336 343 356 315 309 316 305 290 269 250 115 355 300 153 157 171 156 152 129 54 302 244 231 220 207 219 231 215 211 221 202 193 193 169 157 202 197 155 139 143 131 50 88 74 278 279 314 335 351 355 313 259 243 321 308 284 279 272 242 208 185 196 229 236 239 250 257 265 274 272 251 227 214 190 182 181 175 178 184 187 192